Location: Nairn
(57.5833°N, 3.8667°W)
Time: 17:10:03
(UTC+00:00)

CENTAUR R/B - Pass Details

Date: 07 August 2020
Orbit: 756 x 1432 km, 63.4° (Epoch: 19 September)

Event Time Altitude Azimuth Distance (km) Brightness Sun altitude
Rises 02:16:12 0° 266° (W) 3,687 5.2 -12.4°
Reaches altitude 10° 02:18:40 10° 271° (W) 2,830 4.7 -12.2°
Maximum altitude 02:25:21 58° 350° (N) 1,340 3.5 -11.8°
Drops below altitude 10° 02:33:16 10° 69° (ENE) 3,321 6.1 -11.2°
Sets 02:36:23 0° 73° (ENE) 4,370 6.7 -11.0°
